Stations météo

Publicité
Amberieu, France (7482): Température de l'air & dewpoint: 17.09.2018 15:00:00 - 23.09.2018 15:00:00 (CEST)Amberieu, France (7482): Température de l'air 5cm: 17.09.2018 15:00:00 - 23.09.2018 15:00:00 (CEST)Amberieu, France (7482): Température de l'air -20cm & Température de l'air -100cm: 17.09.2018 15:00:00 - 23.09.2018 15:00:00 (CEST)Amberieu, France (7482): Vitesse du vent & gusts: 17.09.2018 15:00:00 - 23.09.2018 15:00:00 (CEST)Amberieu, France (7482): Direction du vent: 17.09.2018 15:00:00 - 23.09.2018 15:00:00 (CEST)Amberieu, France (7482): reduced air pressure: 17.09.2018 15:00:00 - 23.09.2018 15:00:00 (CEST)Amberieu, France (7482): visibility: 17.09.2018 15:00:00 - 23.09.2018 15:00:00 (CEST)Amberieu, France (7482): Ensoleillement: 17.09.2018 15:00:00 - 23.09.2018 15:00:00 (CEST)Amberieu, France (7482): Quantités de précipitations: 17.09.2018 15:00:00 - 23.09.2018 15:00:00 (CEST)
Date & Time tt [°C] td [°C] tt 5cm [°C] tt -20cm [°C] tt -100cm [°C] ff [km/h] ff [knt] fx [km/h] fx [knt] dd ppp [hPa] vv [km] sd [min] rr [mm]
23.09.2018 15:00:00 28,9 13,6 33,2 20,6 20,0 9 5 22 12 SW 1017,8 20 47 0,0
23.09.2018 14:00:00 27,5 14,2 35,8 20,6 20,0 5 3 25 14 WSW 1019,1 20 60 0,0
23.09.2018 13:00:00 27,0 14,7 31,7 20,6 20,0 12 6 24 13 W 1019,8 20 49 0,0
23.09.2018 12:00:00 26,1 14,2 31,7 20,6 20,0 7 4 24 13 W 1020,6 20 48 0,0
23.09.2018 11:00:00 24,8 11,7 23,5 20,7 20,0 3 2 11 6 SSE 1021,2 20 15 0,0
23.09.2018 10:00:00 20,9 9,8 20,9 20,7 20,0 7 4 15 8 S 1021,6 20 0 0,0
23.09.2018 09:00:00 19,1 10,6 18,5 20,7 20,0 3 2 7 4 SW 1021,7 20 0 0,0
23.09.2018 08:00:00 17,9 9,5 17,2 20,7 20,1 2 1 6 3 SSE 1021,6 20 0 0,0
23.09.2018 07:00:00 17,4 9,3 17,3 20,7 20,0 3 2 7 4 N 1021,6 20 0 0,0
23.09.2018 06:00:00 17,6 8,7 17,6 20,7 20,0 0 0 7 4 N 1021,7 20 0 0,0
23.09.2018 05:00:00 18,2 7,9 17,9 20,7 20,1 4 2 11 6 SSW 1022,1 20 0 0,0
23.09.2018 04:00:00 18,8 6,6 18,0 20,8 20,1 5 3 12 6 SE 1022,4 20 0 0,0
23.09.2018 03:00:00 17,8 6,9 17,6 20,7 20,0 4 2 10 5 S 1023,2 20 0 0,0
23.09.2018 02:00:00 17,8 7,8 17,5 20,7 20,1 5 3 8 4 SSW 1023,4 20 0 0,0
23.09.2018 01:00:00 17,5 7,2 16,8 20,7 20,1 0 0 8 5 N 1023,5 20 0 0,0
23.09.2018 00:00:00 17,2 8,3 16,8 20,7 20,0 5 3 10 5 SSW 1023,2 20 0 0,0
22.09.2018 23:00:00 18,9 5,7 17,7 20,7 20,1 6 3 14 7 SE 1022,8 20 0 0,0
22.09.2018 22:00:00 18,3 6,5 16,5 20,7 20,1 4 2 14 7 SSE 1022,5 20 0 0,0
22.09.2018 21:00:00 18,9 6,4 17,9 20,7 20,1 6 3 11 6 SE 1022,0 20 0 0,0
22.09.2018 20:00:00 19,7 5,0 17,8 20,7 20,0 5 3 6 4 NE 1021,8 20 13 0,0
22.09.2018 19:00:00 22,0 4,5 21,5 20,7 20,1 3 1 12 6 WSW 1021,3 20 38 0,0
22.09.2018 18:00:00 22,6 4,6 25,7 20,6 20,0 5 3 12 6 WNW 1021,4 20 46 0,0
22.09.2018 17:00:00 22,6 5,5 27,5 20,7 20,1 4 2 16 9 W 1021,6 20 50 0,0
22.09.2018 16:00:00 22,1 6,3 28,8 20,7 20,0 8 4 20 11 NNW 1022,2 20 55 0,0
22.09.2018 15:00:00 21,2 4,3 29,1 20,7 20,0 6 3 18 10 NNW 1022,5 20 60 0,0
22.09.2018 14:00:00 20,1 7,1 27,6 20,7 20,0 3 2 14 8 S 1023,2 20 60 0,0
22.09.2018 13:00:00 17,7 9,6 22,4 20,8 20,0 10 6 23 12 NE 1024,1 20 50 0,0
22.09.2018 12:00:00 16,6 9,8 21,6 20,8 20,0 5 3 19 11 NNE 1025,0 20 57 0,0
22.09.2018 11:00:00 14,1 10,3 16,9 20,9 20,0 4 2 11 6 N 1025,3 20 36 0,0
22.09.2018 10:00:00 12,5 10,6 13,5 20,9 20,0 6 3 14 7 N 1025,5 20 17 0,0
22.09.2018 09:00:00 11,1 10,0 8,0 21,0 20,1 8 4 11 6 N 1025,3 20 55 0,0
22.09.2018 08:00:00 8,1 7,8 4,7 21,0 20,0 6 3 8 5 NNE 1025,8 20 7 0,0
22.09.2018 07:00:00 8,2 7,8 4,9 21,1 20,0 5 3 10 5 NE 1025,3 20 0 0,0
22.09.2018 06:00:00 8,8 8,3 5,6 21,1 20,0 7 4 10 6 NE 1025,1 20 0 0,0
22.09.2018 05:00:00 9,3 8,5 7,0 21,1 20,0 5 3 12 6 NNE 1025,1 20 0 0,0
22.09.2018 04:00:00 9,7 9,1 8,5 21,1 20,0 7 4 10 5 N 1025,8 20 0 0,0
22.09.2018 03:00:00 9,6 9,1 7,2 21,1 20,0 6 3 8 4 NNE 1025,1 20 0 0,0
22.09.2018 02:00:00 9,6 9,0 7,8 21,2 20,1 5 3 8 4 NNE 1025,3 20 0 0,0
22.09.2018 01:00:00 9,9 9,3 7,7 21,2 20,0 6 3 11 6 NNE 1025,4 20 0 0,0
22.09.2018 00:00:00 10,5 9,4 8,4 21,1 20,0 8 4 9 5 NNE 1025,1 20 0 0,0
21.09.2018 23:00:00 11,7 10,3 10,2 21,1 20,0 4 2 12 7 ENE 1024,3 20 0 0,0
21.09.2018 22:00:00 12,5 10,9 11,7 21,1 20,0 8 4 18 10 N 1023,7 20 0 0,2
21.09.2018 21:00:00 13,1 10,1 12,1 21,1 20,0 14 8 27 15 N 1023,9 15 0 0,0
21.09.2018 20:00:00 13,9 9,7 12,0 21,1 20,0 16 8 42 23 N 1022,9 20 0 0,2
21.09.2018 19:00:00 16,4 12,7 16,1 21,1 20,0 18 10 50 27 N 1021,1 20 0 0,0
21.09.2018 18:00:00 19,8 13,9 19,8 21,0 20,0 32 17 52 28 NNW 1018,9 20 0 0,0
21.09.2018 17:00:00 26,3 7,3 26,5 21,0 20,0 18 10 33 18 WNW 1015,7 20 0 0,0
21.09.2018 16:00:00 27,8 11,8 28,5 21,1 20,0 12 6 29 16 WSW 1014,7 20 1 0,0
21.09.2018 15:00:00 29,7 12,6 29,5 21,1 20,0 15 8 26 14 W 1014,2 20 5 0,0
21.09.2018 14:00:00 28,1 12,4 29,5 21,1 20,0 17 9 33 18 SW 1014,5 20 11 0,0
21.09.2018 13:00:00 29,4 14,0 29,6 21,1 20,0 11 6 30 16 SSE 1014,5 20 43 0,0
21.09.2018 12:00:00 26,3 13,8 27,2 21,2 20,0 17 9 36 19 S 1015,3 20 13 0,0
21.09.2018 11:00:00 25,9 13,7 26,2 21,2 20,0 16 9 35 19 S 1015,4 20 20 0,0
21.09.2018 10:00:00 25,5 14,0 20,4 21,2 20,0 10 5 23 13 S 1015,4 20 43 0,0
21.09.2018 09:00:00 20,2 13,9 19,7 21,2 20,0 9 5 21 11 SSW 1015,4 20 46 0,0
21.09.2018 08:00:00 19,7 13,4 17,5 21,3 20,0 11 6 22 12 S 1015,1 20 11 0,0
21.09.2018 07:00:00 18,9 13,3 14,3 21,2 20,0 13 7 22 12 S 1015,0 6 0 0,0
21.09.2018 06:00:00 17,7 12,8 14,6 21,3 20,0 5 3 14 8 S 1015,1 20 0 0,0
21.09.2018 05:00:00 17,8 12,7 15,2 21,2 20,0 4 2 16 9 SSE 1015,2 20 0 0,0
21.09.2018 04:00:00 17,7 12,6 15,4 21,3 20,0 6 3 13 7 S 1015,7 20 0 0,0
21.09.2018 03:00:00 17,5 12,6 13,8 21,3 20,0 6 3 15 8 SSE 1016,0 20 0 0,0
21.09.2018 02:00:00 19,0 13,0 16,8 21,3 20,0 6 4 13 7 SE 1015,8 20 0 0,0
21.09.2018 01:00:00 18,7 12,9 14,7 21,2 20,0 6 4 15 8 SE 1016,1 20 0 0,0
21.09.2018 00:00:00 19,9 13,1 15,0 21,2 20,0 5 3 16 8 SE 1016,2 20 0 0,0
20.09.2018 23:00:00 18,7 13,8 16,4 21,1 20,0 4 2 10 5 NE 1016,3 20 0 0,0
20.09.2018 22:00:00 19,2 13,4 16,9 21,1 20,0 5 3 9 5 NNE 1016,4 20 0 0,0
20.09.2018 21:00:00 23,1 13,0 19,9 21,1 20,0 8 4 13 7 ESE 1015,9 20 0 0,0
20.09.2018 20:00:00 24,5 12,8 20,1 21,0 20,0 5 3 8 4 E 1015,8 20 18 0,0
20.09.2018 19:00:00 28,9 12,3 27,6 21,0 20,0 6 3 13 7 WNW 1015,6 20 60 0,0
20.09.2018 18:00:00 30,1 13,0 32,3 20,9 20,0 10 5 16 9 NW 1015,6 20 60 0,0
20.09.2018 17:00:00 30,5 14,2 37,9 20,9 20,0 9 5 22 12 NW 1015,9 20 60 0,0
20.09.2018 16:00:00 30,6 14,2 38,1 21,0 20,0 8 5 22 12 W 1016,5 20 60 0,0
20.09.2018 15:00:00 29,8 14,7 38,0 21,0 20,0 10 5 23 12 N 1017,3 20 60 0,0
20.09.2018 14:00:00 29,6 15,0 36,4 21,0 20,0 10 5 21 12 WNW 1018,1 20 60 0,0
20.09.2018 13:00:00 27,8 15,5 35,0 21,0 20,0 5 3 18 10 WNW 1019,1 20 60 0,0
20.09.2018 12:00:00 26,0 14,1 31,3 21,0 19,9 3 1 11 6 W 1019,9 20 60 0,0
20.09.2018 11:00:00 23,2 13,9 29,5 21,1 19,9 4 2 8 5 S 1020,7 20 60 0,0
20.09.2018 10:00:00 21,4 14,3 24,1 21,1 20,0 0 0 5 3 N 1021,0 20 60 0,0
20.09.2018 09:00:00 17,1 14,0 14,3 21,1 20,0 3 2 6 3 N 1021,4 20 53 0,0
20.09.2018 08:00:00 14,5 13,0 12,9 21,2 20,0 3 2 8 5 NE 1021,5 20 0 0,0
20.09.2018 07:00:00 14,2 12,8 11,7 21,2 20,0 5 3 8 4 NNE 1021,2 20 0 0,0
20.09.2018 06:00:00 15,9 12,5 12,5 21,2 20,0 6 3 11 6 SE 1021,0 20 0 0,0
20.09.2018 05:00:00 16,4 12,6 13,0 21,2 20,0 0 0 7 4 N 1020,9 20 0 0,0
20.09.2018 04:00:00 16,3 12,6 12,9 21,2 19,9 0 0 9 5 N 1020,7 20 0 0,0
20.09.2018 03:00:00 16,5 13,2 12,2 21,2 19,9 6 3 9 5 NNE 1020,8 20 0 0,0
20.09.2018 02:00:00 15,9 13,2 12,3 21,1 20,0 2 1 6 3 N 1021,1 20 0 0,0
20.09.2018 01:00:00 17,7 13,4 14,6 21,1 19,9 3 2 9 5 ENE 1020,9 20 0 0,0
20.09.2018 00:00:00 17,9 13,8 15,5 21,1 20,0 5 3 7 4 NNE 1020,8 20 0 0,0
19.09.2018 23:00:00 18,4 13,7 15,2 21,0 19,9 6 3 9 5 N 1020,6 20 0 0,0
19.09.2018 22:00:00 19,8 13,9 15,9 20,9 19,9 4 2 6 3 NE 1020,4 20 0 0,0
19.09.2018 21:00:00 21,4 13,3 18,3 20,9 20,0 5 3 8 4 NE 1019,8 20 0 0,0
19.09.2018 20:00:00 24,3 12,9 22,1 20,9 20,0 8 4 18 10 NNE 1019,2 20 17 0,0
19.09.2018 19:00:00 28,0 13,5 28,0 20,8 19,9 13 7 23 12 N 1018,6 20 60 0,0
19.09.2018 18:00:00 29,6 12,9 32,2 20,8 19,9 14 8 23 13 N 1018,3 20 60 0,0
19.09.2018 17:00:00 30,5 13,3 37,8 20,8 20,0 11 6 21 12 N 1018,2 20 60 0,0
19.09.2018 16:00:00 30,1 13,8 37,7 20,8 19,9 10 6 22 12 NNW 1018,5 20 60 0,0
19.09.2018 15:00:00 29,7 13,9 37,9 20,8 19,9 7 4 18 10 NNW 1019,0 20 60 0,0
19.09.2018 14:00:00 29,0 14,8 35,9 20,8 19,9 9 5 26 14 NNW 1019,7 20 60 0,0
19.09.2018 13:00:00 28,0 15,6 34,2 20,8 19,9 4 2 17 9 W 1020,2 20 60 0,0
19.09.2018 12:00:00 26,3 15,7 31,6 20,8 19,9 6 3 18 10 SW 1020,6 20 60 0,0
19.09.2018 11:00:00 24,8 16,2 28,3 20,9 19,9 10 5 17 9 WSW 1021,1 20 60 0,0
19.09.2018 10:00:00 22,0 15,4 20,9 20,9 20,0 5 3 8 4 W 1020,8 20 50 0,0
19.09.2018 09:00:00 18,8 14,3 17,1 20,9 19,9 3 2 10 5 N 1020,8 19 8 0,0
19.09.2018 08:00:00 16,6 13,5 15,9 20,9 20,0 4 2 8 4 NNW 1020,6 20 0 0,0
19.09.2018 07:00:00 17,2 13,3 14,7 20,9 20,0 5 3 9 5 SE 1019,9 20 0 0,0
19.09.2018 06:00:00 17,5 13,2 16,4 20,9 19,9 4 2 9 5 E 1019,7 20 0 0,0
19.09.2018 05:00:00 16,9 13,4 15,7 20,9 19,9 9 5 10 6 ENE 1019,6 20 0 0,0
19.09.2018 04:00:00 17,2 13,1 14,6 20,9 19,9 2 1 10 6 S 1019,5 20 0 0,0
19.09.2018 03:00:00 17,6 13,1 15,6 20,9 19,9 4 2 12 7 SE 1019,4 20 0 0,0
19.09.2018 02:00:00 19,6 13,3 18,2 20,9 19,9 5 3 11 6 SSE 1019,1 20 0 0,0
19.09.2018 01:00:00 20,0 13,2 17,8 20,8 19,9 3 2 11 6 SSE 1019,1 20 0 0,0
19.09.2018 00:00:00 20,4 13,1 17,5 20,8 19,9 5 3 10 6 SSE 1018,7 20 0 0,0
18.09.2018 23:00:00 20,6 13,1 16,6 20,8 19,9 2 1 12 7 SSE 1018,4 20 0 0,0
18.09.2018 22:00:00 21,1 12,5 18,8 20,8 20,0 3 2 11 6 S 1018,1 20 0 0,0
18.09.2018 21:00:00 23,7 12,3 20,9 20,7 19,9 6 4 17 9 S 1017,3 20 0 0,0
18.09.2018 20:00:00 25,1 11,3 22,7 20,6 19,9 6 4 23 12 S 1016,5 20 0 0,0
18.09.2018 19:00:00 27,1 9,9 26,5 20,6 20,0 9 5 29 15 S 1015,7 20 34 0,0
18.09.2018 18:00:00 29,7 9,8 31,2 20,6 19,9 16 8 36 19 SSW 1015,2 20 60 0,0
18.09.2018 17:00:00 30,5 10,5 36,6 20,6 20,0 15 8 36 20 S 1015,4 20 60 0,0
18.09.2018 16:00:00 30,3 11,8 36,3 20,6 20,0 18 10 35 19 SSW 1015,4 20 60 0,0
18.09.2018 15:00:00 30,1 13,4 36,0 20,5 20,0 13 7 33 18 S 1015,8 20 60 0,0
18.09.2018 14:00:00 28,7 14,1 34,0 20,6 19,9 16 9 35 19 S 1016,5 20 60 0,0
18.09.2018 13:00:00 26,9 14,6 33,2 20,6 20,0 19 10 38 21 S 1017,6 20 58 0,0
18.09.2018 12:00:00 25,8 15,8 30,7 20,6 20,0 12 7 32 18 SSE 1018,3 19 57 0,0
18.09.2018 11:00:00 24,1 16,1 28,2 20,6 20,0 18 10 37 20 S 1018,9 20 58 0,0
18.09.2018 10:00:00 22,5 16,1 25,1 20,6 20,0 14 8 30 16 S 1018,7 20 56 0,0
18.09.2018 09:00:00 21,6 15,9 20,6 20,6 20,0 13 7 31 17 S 1018,3 20 56 0,0
18.09.2018 08:00:00 20,6 14,7 19,9 20,6 20,0 13 7 31 17 SSE 1018,3 20 0 0,0
18.09.2018 07:00:00 20,8 14,4 19,9 20,6 20,0 15 8 32 17 SSE 1017,8 20 0 0,0
18.09.2018 06:00:00 20,9 14,3 20,1 20,6 20,0 12 6 31 17 SSE 1017,7 20 0 0,0
18.09.2018 05:00:00 21,4 14,5 20,0 20,6 20,0 11 6 29 15 SSE 1017,5 20 0 0,0
18.09.2018 04:00:00 21,5 14,4 20,7 20,6 20,0 13 7 33 18 S 1017,5 20 0 0,0
18.09.2018 03:00:00 21,8 14,4 20,8 20,6 20,0 11 6 31 17 S 1017,6 20 0 0,0
18.09.2018 02:00:00 22,6 14,7 21,8 20,5 20,0 13 7 33 18 S 1017,2 20 0 0,0
18.09.2018 01:00:00 23,1 14,4 22,3 20,5 20,0 14 8 28 15 S 1017,3 20 0 0,0
18.09.2018 00:00:00 23,3 14,0 21,8 20,5 20,0 10 5 23 12 SSE 1016,9 20 0 0,0
17.09.2018 23:00:00 23,6 14,0 22,8 20,4 20,0 12 6 28 15 S 1016,8 20 0 0,0
17.09.2018 22:00:00 24,2 13,7 23,0 20,4 20,0 12 7 29 16 S 1016,6 20 0 0,0
17.09.2018 21:00:00 25,0 12,6 24,0 20,3 20,0 13 7 33 18 S 1016,1 20 0 0,0
17.09.2018 20:00:00 26,3 12,4 25,5 20,3 20,0 12 6 25 14 S 1015,6 20 24 0,0
17.09.2018 19:00:00 28,9 6,9 28,2 20,2 20,0 8 4 20 11 S 1015,3 20 60 0,0
17.09.2018 18:00:00 30,6 8,3 32,8 20,2 20,0 4 2 23 12 SW 1015,5 20 60 0,0
17.09.2018 17:00:00 31,0 7,4 36,8 20,2 20,0 11 6 28 15 SSW 1015,8 20 60 0,0
17.09.2018 16:00:00 31,1 11,0 36,7 20,2 20,0 12 6 27 15 S 1016,3 20 60 0,0
17.09.2018 15:00:00 29,4 12,8 34,3 20,2 20,0 12 6 34 18 S 1017,2 20 53 0,0

tt = Température de l'air
td = dewpoint
tt 5cm = Température de l'air 5cm
tt -20cm = Température de l'air -20cm
tt -100cm = Température de l'air -100cm
ff = Vitesse du vent
fx = gusts
dd = Direction du vent
ppp = reduced air pressure
vv = visibility
sd = Ensoleillement
rr = Quantités de précipitations

stations d'obs. à proximité